Probability
0 0 0 0 0 0 0 0 0 0 0 0 0 0 0 0 0 0 0 0 0 0 0 0 0 0 0 0 0 0 0 0 0 0 0 0 0 0 0 0 0 0 0 0
0 0 0 0 0 0 0 0 0 0 0 0 0 0 0 0 0 0 0 0 0 0 0 0 0 0 0 0 0 0 0 0 0 0 0 0 0 0 0 0 0 0 0 0
0 0 0 0 0 0 0 0 0 0 0 0 0 0 0 0 0 0 0 0 0 0 0 0 0 0 0 0 0 0 0 0 0 0 0 0 0 0 0 0 0 0 0 0
0 0 0 0 0 0 0 0 0 0 0 0 0 0 0 0 0 0 0 0 0 0 0 0 0 0 0 0 0 0 0 0 0 0 0 0 0 0 0 0 0 0 0 0
0 0 0 0 0 0 0 0 0 0 0 0 0 0 0 0 0 0 0 0 0 0 0 0 0 0 0 0 0 0 0 0 0 0 0 0 0 0 0 0 0 0 0 0
0 0 0 0 0 0 0 0 0 0 0 0 0 0 0 0 0 0 0 0 0 0 0 0 0 0 0 0 0 0 0 0 0 0 0 0 0 0 0 0 0 0 0 0
0 0 0 0 0 0 0 0 0 0 0 0 0 0 0 0 0 0 0 0 0 0 0 0 0 0 0 0 0 0 0 0 0 0 0 0 0 0 0 0 0 0 0 0
0 0 0 0 0 0 0 0 0 0 0 0 0 0 0 0 0 0 0 0 0 0 0 0 1 1 1 1 0 0 0 0 0 0 0 0 0 0 0 0 0 0 0 0
0 0 0 0 0 0 0 0 0 0 0 0 0 0 0 0 0 0 0 0 0 0 0 0 1 3 3 1 0 0 0 0 0 0 0 0 0 0 0 0 0 0 0 0
0 0 0 0 0 0 0 0 0 0 0 0 0 0 0 0 0 0 0 0 0 0 0 0 1 3 4 3 1 0 0 0 0 0 0 0 0 0 0 0 0 0 0 0
0 0 0 0 0 0 0 0 0 0 0 0 0 0 0 0 0 0 0 0 0 0 0 0 0 1 3 3 2 1 0 0 0 0 0 0 0 0 0 0 0 0 0 0
0 0 0 0 0 0 0 0 0 0 0 0 0 0 0 0 0 0 0 0 0 0 0 0 0 1 2 3 2 1 0 0 0 0 0 0 0 0 0 0 0 0 0 0
0 0 0 0 0 0 0 0 0 0 0 0 0 0 0 0 0 0 0 0 0 0 0 0 0 1 2 3 2 1 0 0 0 0 0 0 0 0 0 0 0 0 0 0
0 0 0 0 0 0 0 0 0 0 0 0 0 0 0 0 0 0 0 0 0 0 0 0 0 1 2 3 2 1 1 0 0 0 0 0 0 0 0 0 0 0 0 0
0 0 0 0 0 0 0 0 0 0 0 0 0 0 0 0 0 0 0 0 0 0 0 0 0 1 3 3 2 2 1 1 1 0 0 0 0 0 0 0 0 0 0 0
0 0 0 0 0 0 0 0 0 0 0 0 0 0 0 0 0 0 0 0 0 0 0 0 0 2 3 3 3 2 2 2 2 1 1 0 0 0 0 0 0 0 0 0
0 0 0 0 0 0 0 0 0 0 0 0 0 0 0 0 0 0 0 0 0 0 0 0 0 2 3 4 4 3 2 3 3 3 2 1 0 0 0 0 0 0 0 0
0 0 0 0 0 0 0 0 0 0 0 0 0 0 0 0 0 0 0 0 0 0 0 0 1 2 3 3 3 2 2 3 3 3 3 2 1 0 0 0 0 0 0 0
0 0 0 0 0 0 0 0 0 0 0 0 0 0 0 0 0 0 0 0 0 0 0 0 1 2 3 3 1 0 1 3 3 3 3 3 1 0 0 0 0 0 0 0
0 0 0 0 0 0 0 0 0 0 0 0 0 0 0 0 0 0 0 0 0 0 0 0 1 2 2 2 1 0 1 2 3 3 3 3 2 1 0 0 0 0 0 0
0 0 0 0 0 0 0 0 0 0 0 0 0 0 0 0 0 0 0 0 0 0 0 0 0 1 1 1 0 0 0 1 2 3 3 3 2 1 0 0 0 0 0 0
0 0 0 0 0 0 0 0 0 0 0 0 0 0 0 0 0 0 0 0 0 0 0 0 0 0 0 0 0 0 0 0 1 2 3 3 2 1 0 0 0 0 0 0
0 0 0 0 0 0 0 0 0 0 0 0 0 0 0 0 0 0 0 0 0 0 0 0 0 0 0 0 0 0 0 0 0 1 1 2 2 1 0 0 0 0 0 0
0 0 0 0 0 0 0 0 0 0 0 0 0 0 0 0 0 0 0 0 0 0 0 0 0 0 0 0 0 0 0 0 0 0 0 1 1 1 0 0 0 0 0 0
0 0 0 0 0 0 0 0 0 0 0 0 0 0 0 0 0 0 0 0 0 0 0 0 0 0 0 0 0 0 0 0 0 0 0 0 1 1 0 0 0 0 0 0
0 0 0 0 0 0 0 0 0 0 0 0 0 0 0 0 0 0 0 0 0 0 0 0 0 0 0 0 0 0 0 0 0 0 0 0 1 1 0 0 0 0 0 0
Wind_Speed
3 4 2 4 4 3 4 3 2 2 1 3 3 3 4 4 4 5 4 5 6 6 4 3 4 5 5 4 4 4 4 3 3 3 3 2 1 1 2 2 3 3 3 4
4 1 3 3 3 4 4 3 1 0 1 2 2 3 3 4 6 6 7 7 7 5 4 4 5 5 6 5 5 4 4 4 3 3 2 2 2 2 1 2 3 4 4 3
4 3 3 4 4 4 2 4 4 2 2 3 2 3 3 3 3 4 5 6 7 8 8 6 6 7 6 7 6 5 4 4 3 4 3 3 3 3 2 2 2 3 3 3
2 2 3 4 3 4 2 3 4 3 3 1 1 2 5 4 4 6 6 6 7 7 7 7 7 7 8 7 6 5 5 4 4 4 4 5 3 2 1 1 1 2 3 4
2 2 3 3 3 4 3 3 4 3 3 1 1 1 7 2 5 8 8 8 8 8 8 8 9 8 7 6 6 5 5 4 4 4 5 5 3 2 1 2 3 3 3 3
2 1 3 3 2 4 5 6 5 4 4 1 3 3 6 5 8 7 8 9 9 8 8 7 6 6 6 5 5 5 5 4 4 5 5 6 6 4 4 3 2 2 2 2
1 1 1 3 4 3 5 6 3 3 2 4 2 3 9 8 7 9 9 10 9 9 8 8 8 8 8 7 7 6 6 5 4 5 5 6 6 6 5 4 3 2 1 1
2 3 3 3 5 5 3 6 6 3 3 4 1 5 8 6 5 5 6 6 7 8 8 9 9 9 9 9 8 7 7 5 5 5 5 4 5 4 3 3 3 3 2 2
6 4 2 2 2 8 5 3 4 5 2 2 4 6 8 2 1 1 3 5 7 8 9 9 9 9 9 9 8 8 7 6 6 5 5 5 5 4 4 3 3 2 2 2
7 3 2 1 4 2 5 6 4 4 3 3 5 4 5 3 2 2 3 5 7 7 8 8 8 9 8 8 7 7 7 7 6 6 5 5 4 4 4 4 4 3 3 3
4 4 1 1 4 6 4 3 4 4 4 4 3 7 6 6 5 5 6 6 7 8 9 8 8 8 7 7 7 7 6 5 5 5 4 5 4 4 4 4 4 4 3 3
4 5 2 4 3 4 5 6 7 5 3 3 3 8 5 4 5 5 5 5 6 7 7 7 7 7 7 7 7 7 7 6 6 5 5 5 4 4 4 4 4 4 4 3
5 5 2 3 3 1 2 4 5 5 4 4 4 8 4 2 3 4 5 5 4 5 5 6 6 8 8 8 8 7 7 6 5 5 6 5 5 5 5 4 4 4 4 4
5 4 6 8 6 4 4 4 5 5 4 5 7 8 6 4 4 4 4 5 4 5 6 7 7 8 8 8 8 8 7 6 6 6 6 6 6 5 5 4 4 4 4 4
4 3 4 4 3 3 4 5 7 7 8 8 8 8 10 7 7 6 5 4 4 5 6 8 8 8 8 7 7 7 7 6 7 7 6 6 5 4 4 4 4 4 4 4
2 3 2 2 2 3 4 5 7 7 6 6 5 8 7 4 2 3 4 6 6 7 8 9 8 8 9 9 8 8 7 7 7 8 7 5 5 5 5 5 4 4 4 4
2 4 3 2 2 1 5 7 7 5 4 5 7 8 4 2 4 5 6 7 7 7 8 9 9 9 9 9 9 9 8 8 7 7 6 6 6 6 5 5 5 5 4 4
4 4 3 1 1 6 8 4 5 5 5 5 5 5 4 5 5 3 4 6 7 7 7 8 8 8 7 7 7 7 7 8 8 7 7 7 7 6 5 5 5 4 4 4
6 6 4 3 3 5 6 3 5 5 4 4 5 4 3 1 1 2 3 5 7 7 6 7 8 7 8 8 8 8 8 7 7 7 7 7 8 7 6 6 5 4 4 4
3 4 5 4 4 6 7 4 3 4 4 5 4 4 2 4 1 5 4 3 4 3 4 4 5 5 6 7 8 9 8 8 9 9 8 8 8 8 8 7 5 4 4 4
2 2 4 5 5 7 6 2 4 4 7 3 3 4 4 5 6 5 2 1 2 3 3 5 6 6 6 7 9 9 8 9 8 7 7 7 7 7 7 6 5 5 4 4
6 5 5 5 5 8 3 3 6 6 3 2 3 4 4 4 2 1 1 1 2 3 3 5 6 5 5 7 9 8 8 7 6 7 7 7 7 7 7 7 6 5 6 5
5 6 6 7 7 5 2 4 4 2 2 3 3 3 3 3 2 2 2 2 3 4 4 5 6 6 5 6 7 8 6 6 7 8 7 7 6 5 6 7 7 6 5 4
3 1 2 3 5 4 4 3 3 2 3 3 3 3 3 3 2 2 2 2 3 3 4 5 6 6 5 5 5 5 6 7 8 8 7 6 7 5 5 5 5 5 5 5
4 2 2 4 5 4 4 3 3 2 2 1 1 2 3 3 2 2 2 2 3 3 3 5 6 6 6 5 5 5 6 8 8 7 6 6 6 6 5 4 4 5 5 7
5 6 6 6 5 4 6 5 4 3 3 2 1 1 1 3 3 2 3 2 3 3 4 4 5 5 5 6 5 6 7 8 8 7 6 5 5 5 4 4 2 1 2 5
Wind_Direction
57 81 165 202 185 162 142 141 169 233 189 137 179 208 216 194 194 205 208 203 205 210 208 188 172 157 148 144 141 144 137 135 124 104 98 91 71 37 37 40 44 54 60 66
59 224 216 171 149 126 127 133 155 358 116 143 184 249 242 205 207 207 207 210 210 205 192 188 174 168 167 165 162 157 153 148 142 127 123 119 115 87 63 38 46 45 56 60
157 217 164 146 141 134 149 171 183 174 68 53 87 318 275 248 223 221 217 212 209 202 197 194 188 185 173 175 177 174 169 157 148 134 111 87 67 54 42 34 35 29 50 61
191 215 142 142 162 144 200 201 162 142 111 292 135 274 275 240 240 228 221 211 212 209 198 192 190 189 187 186 177 170 166 160 155 144 137 133 132 129 148 108 69 49 53 61
224 172 147 163 187 156 179 122 117 122 124 61 353 205 280 243 237 236 225 217 212 204 197 195 195 193 189 180 171 168 161 159 160 155 150 139 132 135 117 89 81 63 49 53
220 192 174 180 136 134 120 81 65 57 72 305 225 189 270 231 221 226 220 216 206 199 196 194 188 177 179 174 168 165 161 165 162 157 154 153 152 147 129 116 107 82 55 44
360 337 200 137 109 80 96 93 51 11 7 260 237 212 250 241 224 212 211 211 202 192 188 184 179 178 179 179 177 172 166 171 171 161 163 165 164 158 155 153 146 132 103 69
165 264 232 178 159 158 160 137 151 185 222 278 277 241 257 258 243 215 205 199 189 188 188 188 187 184 183 183 179 173 173 176 175 169 171 167 164 159 161 161 153 150 150 151
172 231 267 189 144 135 143 165 160 133 162 264 273 283 300 308 335 188 182 179 190 192 190 190 187 184 183 182 182 176 175 179 180 174 167 165 166 163 161 158 147 144 144 135
155 180 248 174 86 62 144 146 112 126 156 257 287 275 258 270 248 216 195 197 201 194 191 189 187 186 185 182 175 168 172 181 177 170 171 167 170 169 162 151 150 149 141 126
141 150 238 120 176 180 130 132 130 132 158 169 263 273 233 223 213 207 212 207 199 194 193 191 190 184 176 169 168 170 175 173 169 169 164 155 162 157 150 152 159 155 143 138
150 130 192 240 238 181 169 173 154 159 201 179 195 268 274 242 222 207 214 211 197 194 193 189 181 169 168 170 171 173 177 179 175 167 159 159 156 151 151 159 163 152 146 143
145 125 111 340 335 210 185 179 165 140 132 166 190 264 303 315 251 220 210 211 201 189 184 176 172 172 176 177 176 176 179 181 170 159 156 155 157 160 164 167 161 153 149 142
121 133 170 196 212 198 213 198 167 146 168 205 223 250 286 277 251 236 219 208 197 191 184 178 180 181 180 179 177 176 179 175 165 157 157 163 171 172 168 160 153 153 152 149
115 167 206 225 217 188 212 206 190 193 196 201 230 236 253 246 235 229 216 204 197 193 188 185 186 184 179 177 176 173 174 171 165 160 164 173 166 157 150 147 147 145 147 151
102 161 176 265 242 213 251 234 210 211 208 219 237 256 258 254 229 222 215 207 208 206 199 192 187 183 182 181 178 172 172 170 165 166 171 163 153 150 150 150 146 142 141 139
144 139 136 254 289 72 258 231 208 208 204 189 218 245 265 257 230 218 211 210 213 212 202 191 188 189 189 185 179 177 174 163 163 166 163 159 159 155 156 152 145 150 150 141
157 139 139 172 136 227 242 230 192 192 223 212 228 248 235 229 236 227 207 208 217 212 201 194 187 187 186 176 172 165 157 159 163 163 161 161 160 155 149 147 151 152 144 146
173 152 141 151 206 264 281 233 177 182 248 224 221 247 252 236 39 316 257 217 212 207 200 194 185 181 174 171 167 155 157 160 162 168 169 168 162 155 152 157 159 153 146 150
135 142 142 154 184 231 245 247 185 137 259 247 207 214 198 110 103 273 269 236 219 202 184 172 156 150 162 168 159 156 164 167 177 180 175 167 162 160 164 166 158 150 151 154
134 133 167 181 215 254 257 266 115 161 239 250 194 192 169 181 208 240 245 220 199 182 157 144 144 156 168 162 159 164 170 184 185 170 158 156 160 162 161 155 149 146 144 135
176 170 184 170 204 247 265 134 170 215 237 201 193 185 180 208 231 222 185 169 156 142 137 143 148 155 156 157 160 167 182 183 160 151 151 155 157 160 155 149 151 148 142 137
196 191 187 192 213 234 215 209 233 212 210 226 206 210 181 185 213 204 182 166 167 161 153 151 151 149 153 163 166 173 180 158 149 148 154 155 154 157 153 155 155 149 150 152
255 166 163 246 262 268 263 267 279 240 223 230 209 197 181 190 205 193 178 168 162 157 157 152 146 149 161 171 172 170 155 149 147 152 155 152 151 152 151 154 158 159 164 166
220 183 193 252 279 303 293 274 278 276 274 264 243 210 192 170 180 185 177 178 173 159 154 153 158 166 171 167 163 153 149 148 148 152 153 151 151 154 154 155 167 172 185 183
201 190 187 224 227 220 260 273 286 274 261 241 218 248 225 169 172 171 174 176 162 156 149 150 158 163 165 162 162 159 155 154 150 151 157 156 155 155 155 151 132 121 169 179